West Paducah, KY

8:19 AM CDT on August 28, 2016 (GMT -0500)
Barkley Regional

Weather History for KPAH - February, 2014

Change the Weather History Date:

Tuesday, February 25, 2014

  Actual Average Record
Temperature  
Mean Temperature 37 °F 42 °F  
Max Temperature 45 °F 52 °F 75 °F (1981)
Min Temperature 28 °F 32 °F 4 °F (1967)
Degree Days  
Heating Degree Days 28 23  
Month to date heating degree days 814 656  
Since 1 July heating degree days 3551 3229  
Cooling Degree Days 0 0  
Month to date cooling degree days 0 0  
Year to date cooling degree days 0 0  
Moisture  
Dew Point 18 °F    
Average Humidity 52    
Maximum Humidity 69    
Minimum Humidity 34    
Precipitation  
Precipitation 0.00 in 0.14 in 1.15 in (1957)
Month to date precipitation 3.15 3.51  
Year to date precipitation 5.18 7.19  
Snow  
Snow 0.00 in 0.10 in 7.30 in (1993)
Month to date snowfall 6.6 3.0  
Since 1 July snowfall 12.9 8.3  
Snow Depth 0.00 in    
Sea Level Pressure  
Sea Level Pressure 30.21 in    
Wind  
Wind Speed 10 mph (NNE)    
Max Wind Speed 20 mph    
Max Gust Speed 24 mph    
Visibility 10 miles    
Events      
T = Trace of Precipitation, MM = Missing Value Source: NWS Daily Summary

Daily Weather History Graph

Daily Weather History Graph

Search for Another Location

Airport or City:

Trip Planner

Search our weather history database for the weather conditions in past years. The results will help you decide how hot, cold, wet, or windy it might be!

Date:

Astronomy

Feb. 25, 2014 Rise Set
Actual Time 6:31 AM CST 5:45 PM CST
Civil Twilight 6:05 AM CST 6:11 PM CST
Nautical Twilight 5:35 AM CST 6:41 PM CST
Astronomical Twilight 5:05 AM CST 7:11 PM CST
Moon 3:22 AM CST (2/25) 1:54 PM CST (2/25)
Length of Visible Light 12h 06m
Length of Day
11h 14m
Waning Crescent, 18% of the Moon is Illuminated
Feb 25
Waning Crescent
Mar 1
New
Mar 8
First Quarter
Mar 16
Full
Mar 23
Last Quarter

Hourly Weather History & Observations

Time (CST) Temp. Windchill Dew Point Humidity Pressure Visibility Wind Dir Wind Speed Gust Speed Precip Events Conditions
12:53 AM 34.0 °F 28.8 °F 18.0 °F 52% 30.19 in 10.0 mi ENE 5.8 mph - N/A   Overcast
1:53 AM 34.0 °F 28.8 °F 17.1 °F 50% 30.18 in 10.0 mi ENE 5.8 mph - N/A   Overcast
2:53 AM 34.0 °F 28.0 °F 18.0 °F 52% 30.18 in 10.0 mi NNE 6.9 mph - N/A   Overcast
3:53 AM 34.0 °F 26.6 °F 18.0 °F 52% 30.19 in 10.0 mi North 9.2 mph - N/A   Overcast
4:53 AM 30.9 °F 26.2 °F 18.0 °F 59% 30.19 in 10.0 mi NE 4.6 mph - N/A   Mostly Cloudy
5:53 AM 30.0 °F 23.2 °F 19.0 °F 64% 30.21 in 10.0 mi North 6.9 mph - N/A   Clear
6:53 AM 30.0 °F 21.1 °F 19.0 °F 64% 30.23 in 10.0 mi North 10.4 mph - N/A   Clear
7:53 AM 33.1 °F 25.5 °F 19.0 °F 56% 30.24 in 10.0 mi NE 9.2 mph - N/A   Clear
8:53 AM 36.0 °F 27.5 °F 17.1 °F 46% 30.24 in 10.0 mi NE 12.7 mph - N/A   Clear
9:53 AM 37.9 °F 32.1 °F 16.0 °F 41% 30.25 in 10.0 mi ENE 8.1 mph - N/A   Clear
10:53 AM 41.0 °F 34.7 °F 16.0 °F 36% 30.24 in 10.0 mi NE 10.4 mph - N/A   Clear
11:53 AM 42.1 °F 39.2 °F 17.1 °F 37% 30.22 in 10.0 mi Variable 4.6 mph - N/A   Clear
12:53 PM - - - N/A% 30.18 in 10.0 mi Variable 4.6 mph - N/A   Unknown
1:53 PM 43.0 °F 37.7 °F 19.0 °F 38% 30.18 in 10.0 mi NNW 9.2 mph - N/A   Clear
2:53 PM 43.0 °F 36.0 °F 19.9 °F 40% 30.18 in 10.0 mi North 13.8 mph - N/A   Clear
3:53 PM 39.9 °F 31.8 °F 21.0 °F 47% 30.17 in 10.0 mi North 15.0 mph - N/A   Clear
4:53 PM 37.0 °F 28.1 °F 19.9 °F 50% 30.19 in 10.0 mi North 15.0 mph - N/A   Clear
5:53 PM 35.1 °F 26.4 °F 19.9 °F 54% 30.19 in 10.0 mi North 12.7 mph - N/A   Clear
6:53 PM 33.1 °F 22.6 °F 19.9 °F 59% 30.20 in 10.0 mi North 16.1 mph - N/A   Clear
7:53 PM 32.0 °F 23.0 °F 19.0 °F 59% 30.20 in 10.0 mi North 11.5 mph - N/A   Clear
8:53 PM 30.9 °F 21.7 °F 19.0 °F 61% 30.21 in 10.0 mi North 11.5 mph - N/A   Clear
9:53 PM 30.0 °F 21.1 °F 18.0 °F 61% 30.23 in 10.0 mi North 10.4 mph - N/A   Clear
10:53 PM 28.9 °F 19.2 °F 19.0 °F 67% 30.23 in 10.0 mi North 11.5 mph - N/A   Mostly Cloudy
11:30 PM 28.9 °F 18.2 °F 18.0 °F 64% 30.22 in 10.0 mi North 13.8 mph - N/A   Mostly Cloudy
11:53 PM 28.0 °F 16.5 °F 17.1 °F 63% 30.23 in 10.0 mi North 15.0 mph 23.0 mph N/A   Mostly Cloudy